map of TTT home
TTT - Airport
Location
City:  Taitung, Taiwan
Name:Fengnin
ICAO:RCFN
IATA:TTT

Details
Type:Airport (Aerodrome, Airfield)
Use:Public/Civil
Latitude:2245'18"N (22.754986)
Longitude:12106'06"E (121.101681)
Datum:WGS 1984
Elevation:143 ft (44 m)
Variation:3.98W (WMM2015 magnetic declination)
-0.09 annual change
Runways:1
Longest:8002 × 148 ft (2439 × 45 m), paved

Time
Time Zone:UTC+8
Local Time:

Weather
METAR:RCFN 161300Z 32004KT 290V360 9999 -RA FEW015 SCT030 BKN050 23/20 Q1018 NOSIG RMK A3007
TAF:RCFN 161700Z 1618/1718 35005KT 9999 FEW016 BKN032
TEMPO 1702/1709 06009KT FEW010 BKN020

Related Locations
Nearby:
Farthest:VMI: 12366 mi / 19902 km
Puerto Vallemi [Dr. Juan Plate Airport], 1, PY

Find:

   beyond  
but within

Other Information
Maps:
NOTAMs:
Links:
Sources:

  
  • flag of Taiwan
  

Sectional Chart

Flight Planning
at skyvector.com

Satellite Image

Google Maps Satellite view

 

Copyright © 2004-2018 Karl L. Swartz. All rights reserved.
The Great Circle Mapper name and logo are trademarks of the Great Circle Mapper.
All other trademarks mentioned herein belong to their respective owners.
Please see credits for attibutions and further copyright information.

  Follow gcmap on Facebook Follow gcmap on Twitter Follow gcmap on Google+ GCmap on LinkedIn

hCard Microformat

Geo Microformat